owner,sensor,date,latitude,longitude,vertical_datum,wind_speed,wind_to_direction,wind_speed_of_gust,qcFlag 
WAVCIS,ioos:station:WAVCIS:CSI06:1,2016-07-01T00:00:00Z,28.8667,-90.4833,10.0,1.99,199.0,,'11111222,11111222,99999999' 
WAVCIS,ioos:station:WAVCIS:CSI06:1,2016-07-01T01:00:00Z,28.8667,-90.4833,10.0,1.586,248.0,,'11111222,11111222,99999999' 
WAVCIS,ioos:station:WAVCIS:CSI06:1,2016-07-01T02:00:00Z,28.8667,-90.4833,10.0,2.112,320.0,,'11111222,11111222,99999999' 
WAVCIS,ioos:station:WAVCIS:CSI06:1,2016-07-01T03:00:00Z,28.8667,-90.4833,10.0,2.696,18.0,,'11111222,11111222,99999999' 
WAVCIS,ioos:station:WAVCIS:CSI06:1,2016-07-01T04:00:00Z,28.8667,-90.4833,10.0,1.744,79.0,,'11111222,11111222,99999999' 
WAVCIS,ioos:station:WAVCIS:CSI06:1,2016-07-01T05:00:00Z,28.8667,-90.4833,10.0,2.083,117.0,,'11111222,11111222,99999999' 
WAVCIS,ioos:station:WAVCIS:CSI06:1,2016-07-01T06:00:00Z,28.8667,-90.4833,10.0,2.391,107.0,,'11111222,11111222,99999999' 
WAVCIS,ioos:station:WAVCIS:CSI06:1,2016-07-01T07:00:00Z,28.8667,-90.4833,10.0,2.23,136.0,,'11111222,11111222,99999999' 
WAVCIS,ioos:station:WAVCIS:CSI06:1,2016-07-01T08:00:00Z,28.8667,-90.4833,10.0,1.315,159.0,,'11111222,11111222,99999999' 
WAVCIS,ioos:station:WAVCIS:CSI06:1,2016-07-01T09:00:00Z,28.8667,-90.4833,10.0,1.022,211.0,,'11111222,11111222,99999999' 
WAVCIS,ioos:station:WAVCIS:CSI06:1,2016-07-01T10:00:00Z,28.8667,-90.4833,10.0,1.095,287.0,,'11111222,11111222,99999999' 
WAVCIS,ioos:station:WAVCIS:CSI06:1,2016-07-01T11:00:00Z,28.8667,-90.4833,10.0,1.643,307.0,,'11111222,11111222,99999999' 
WAVCIS,ioos:station:WAVCIS:CSI06:1,2016-07-01T12:00:00Z,28.8667,-90.4833,10.0,2.318,322.0,,'11111222,11111222,99999999' 
WAVCIS,ioos:station:WAVCIS:CSI06:1,2016-07-01T13:00:00Z,28.8667,-90.4833,10.0,1.863,337.0,,'11111222,11111222,99999999' 
WAVCIS,ioos:station:WAVCIS:CSI06:1,2016-07-01T14:00:00Z,28.8667,-90.4833,10.0,1.371,325.0,,'11111222,11111222,99999999' 
WAVCIS,ioos:station:WAVCIS:CSI06:1,2016-07-01T15:00:00Z,28.8667,-90.4833,10.0,2.644,346.0,,'11111222,11111222,99999999' 
WAVCIS,ioos:station:WAVCIS:CSI06:1,2016-07-01T16:00:00Z,28.8667,-90.4833,10.0,3.716,338.0,,'11111222,11111222,99999999' 
WAVCIS,ioos:station:WAVCIS:CSI06:1,2016-07-01T17:00:00Z,28.8667,-90.4833,10.0,2.242,346.0,,'11111222,11111222,99999999' 
WAVCIS,ioos:station:WAVCIS:CSI06:1,2016-07-01T18:00:00Z,28.8667,-90.4833,10.0,2.106,342.0,,'11111222,11111222,99999999' 
WAVCIS,ioos:station:WAVCIS:CSI06:1,2016-07-01T19:00:00Z,28.8667,-90.4833,10.0,1.548,334.0,,'11111222,11111222,99999999' 
WAVCIS,ioos:station:WAVCIS:CSI06:1,2016-07-01T20:00:00Z,28.8667,-90.4833,10.0,1.006,298.0,,'11111222,11111222,99999999' 
WAVCIS,ioos:station:WAVCIS:CSI06:1,2016-07-01T21:00:00Z,28.8667,-90.4833,10.0,1.196,258.0,,'11111222,11111222,99999999' 
WAVCIS,ioos:station:WAVCIS:CSI06:1,2016-07-01T22:00:00Z,28.8667,-90.4833,10.0,1.033,139.0,,'11111222,11111222,99999999' 
WAVCIS,ioos:station:WAVCIS:CSI06:1,2016-07-01T23:00:00Z,28.8667,-90.4833,10.0,0.682,114.0,,'11111222,11111222,99999999' 
WAVCIS,ioos:station:WAVCIS:CSI06:1,2016-07-02T00:00:00Z,28.8667,-90.4833,10.0,1.238,228.0,,'11111222,11111222,99999999' 
WAVCIS,ioos:station:WAVCIS:CSI06:1,2016-07-02T01:00:00Z,28.8667,-90.4833,10.0,1.065,244.0,,'11111222,11111222,99999999' 
WAVCIS,ioos:station:WAVCIS:CSI06:1,2016-07-02T02:00:00Z,28.8667,-90.4833,10.0,0.639,226.0,,'11111222,11111222,99999999' 
WAVCIS,ioos:station:WAVCIS:CSI06:1,2016-07-02T03:00:00Z,28.8667,-90.4833,10.0,0.733,215.0,,'11111222,11111222,99999999' 
WAVCIS,ioos:station:WAVCIS:CSI06:1,2016-07-02T04:00:00Z,28.8667,-90.4833,10.0,0.706,123.0,,'11111222,11111222,99999999' 
WAVCIS,ioos:station:WAVCIS:CSI06:1,2016-07-02T05:00:00Z,28.8667,-90.4833,10.0,0.821,190.0,,'11111222,11111222,99999999' 
WAVCIS,ioos:station:WAVCIS:CSI06:1,2016-07-02T06:00:00Z,28.8667,-90.4833,10.0,1.372,144.0,,'11111222,11111222,99999999' 
WAVCIS,ioos:station:WAVCIS:CSI06:1,2016-07-02T07:00:00Z,28.8667,-90.4833,10.0,1.723,208.0,,'11111222,11111222,99999999' 
WAVCIS,ioos:station:WAVCIS:CSI06:1,2016-07-02T08:00:00Z,28.8667,-90.4833,10.0,3.126,204.0,,'11111222,11111222,99999999' 
WAVCIS,ioos:station:WAVCIS:CSI06:1,2016-07-02T09:00:00Z,28.8667,-90.4833,10.0,3.18,226.0,,'11111222,11111222,99999999' 
WAVCIS,ioos:station:WAVCIS:CSI06:1,2016-07-02T10:00:00Z,28.8667,-90.4833,10.0,2.426,245.0,,'11111222,11111222,99999999' 
WAVCIS,ioos:station:WAVCIS:CSI06:1,2016-07-02T11:00:00Z,28.8667,-90.4833,10.0,2.031,265.0,,'11111222,11111222,99999999' 
WAVCIS,ioos:station:WAVCIS:CSI06:1,2016-07-02T12:00:00Z,28.8667,-90.4833,10.0,1.712,272.0,,'11111222,11111222,99999999' 
WAVCIS,ioos:station:WAVCIS:CSI06:1,2016-07-02T13:00:00Z,28.8667,-90.4833,10.0,1.052,288.0,,'11111222,11111222,99999999' 
WAVCIS,ioos:station:WAVCIS:CSI06:1,2016-07-02T14:00:00Z,28.8667,-90.4833,10.0,1.895,330.0,,'11111222,11111222,99999999' 
WAVCIS,ioos:station:WAVCIS:CSI06:1,2016-07-02T15:00:00Z,28.8667,-90.4833,10.0,1.244,336.0,,'11111222,11111222,99999999' 
WAVCIS,ioos:station:WAVCIS:CSI06:1,2016-07-02T16:00:00Z,28.8667,-90.4833,10.0,1.263,11.0,,'11111222,11111222,99999999' 
WAVCIS,ioos:station:WAVCIS:CSI06:1,2016-07-02T17:00:00Z,28.8667,-90.4833,10.0,1.312,29.0,,'11111222,11111222,99999999' 
WAVCIS,ioos:station:WAVCIS:CSI06:1,2016-07-02T18:00:00Z,28.8667,-90.4833,10.0,0.805,102.0,,'11111222,11111222,99999999' 
WAVCIS,ioos:station:WAVCIS:CSI06:1,2016-07-02T19:00:00Z,28.8667,-90.4833,10.0,0.88,126.0,,'11111222,11111222,99999999' 
WAVCIS,ioos:station:WAVCIS:CSI06:1,2016-07-02T20:00:00Z,28.8667,-90.4833,10.0,2.716,141.0,,'11111222,11111222,99999999' 
WAVCIS,ioos:station:WAVCIS:CSI06:1,2016-07-02T21:00:00Z,28.8667,-90.4833,10.0,3.521,165.0,,'11111222,11111222,99999999' 
WAVCIS,ioos:station:WAVCIS:CSI06:1,2016-07-02T22:00:00Z,28.8667,-90.4833,10.0,3.711,165.0,,'11111222,11111222,99999999' 
WAVCIS,ioos:station:WAVCIS:CSI06:1,2016-07-02T23:00:00Z,28.8667,-90.4833,10.0,3.965,185.0,,'11111222,11111222,99999999' 
WAVCIS,ioos:station:WAVCIS:CSI06:1,2016-07-03T00:00:00Z,28.8667,-90.4833,10.0,3.156,205.0,,'11111222,11111222,99999999' 
WAVCIS,ioos:station:WAVCIS:CSI06:1,2016-07-03T01:00:00Z,28.8667,-90.4833,10.0,3.009,219.0,,'11111222,11111222,99999999' 
WAVCIS,ioos:station:WAVCIS:CSI06:1,2016-07-03T02:00:00Z,28.8667,-90.4833,10.0,2.487,214.0,,'11111222,11111222,99999999' 
WAVCIS,ioos:station:WAVCIS:CSI06:1,2016-07-03T03:00:00Z,28.8667,-90.4833,10.0,2.659,202.0,,'11111222,11111222,99999999' 
WAVCIS,ioos:station:WAVCIS:CSI06:1,2016-07-03T04:00:00Z,28.8667,-90.4833,10.0,2.923,199.0,,'11111222,11111222,99999999' 
WAVCIS,ioos:station:WAVCIS:CSI06:1,2016-07-03T05:00:00Z,28.8667,-90.4833,10.0,3.139,200.0,,'11111222,11111222,99999999' 
WAVCIS,ioos:station:WAVCIS:CSI06:1,2016-07-03T06:00:00Z,28.8667,-90.4833,10.0,4.17,216.0,,'11111222,11111222,99999999' 
WAVCIS,ioos:station:WAVCIS:CSI06:1,2016-07-03T07:00:00Z,28.8667,-90.4833,10.0,3.324,211.0,,'11111222,11111222,99999999' 
WAVCIS,ioos:station:WAVCIS:CSI06:1,2016-07-03T08:00:00Z,28.8667,-90.4833,10.0,3.272,218.0,,'11111222,11111222,99999999' 
WAVCIS,ioos:station:WAVCIS:CSI06:1,2016-07-03T09:00:00Z,28.8667,-90.4833,10.0,3.324,231.0,,'11111222,11111222,99999999' 
WAVCIS,ioos:station:WAVCIS:CSI06:1,2016-07-03T10:00:00Z,28.8667,-90.4833,10.0,3.304,239.0,,'11111222,11111222,99999999' 
WAVCIS,ioos:station:WAVCIS:CSI06:1,2016-07-03T11:00:00Z,28.8667,-90.4833,10.0,2.48,227.0,,'11111222,11111222,99999999' 
WAVCIS,ioos:station:WAVCIS:CSI06:1,2016-07-03T12:00:00Z,28.8667,-90.4833,10.0,5.796,266.0,,'11111222,11111222,99999999' 
WAVCIS,ioos:station:WAVCIS:CSI06:1,2016-07-03T13:00:00Z,28.8667,-90.4833,10.0,7.97,249.0,,'11111222,11111222,99999999' 
WAVCIS,ioos:station:WAVCIS:CSI06:1,2016-07-03T14:00:00Z,28.8667,-90.4833,10.0,7.61,234.0,,'11111222,11111222,99999999' 
WAVCIS,ioos:station:WAVCIS:CSI06:1,2016-07-03T15:00:00Z,28.8667,-90.4833,10.0,6.906,230.0,,'11111222,11111222,99999999' 
WAVCIS,ioos:station:WAVCIS:CSI06:1,2016-07-03T16:00:00Z,28.8667,-90.4833,10.0,6.393,229.0,,'11111222,11111222,99999999' 
WAVCIS,ioos:station:WAVCIS:CSI06:1,2016-07-03T17:00:00Z,28.8667,-90.4833,10.0,6.62,236.0,,'11111222,11111222,99999999' 
WAVCIS,ioos:station:WAVCIS:CSI06:1,2016-07-03T18:00:00Z,28.8667,-90.4833,10.0,5.892,235.0,,'11111222,11111222,99999999' 
WAVCIS,ioos:station:WAVCIS:CSI06:1,2016-07-03T19:00:00Z,28.8667,-90.4833,10.0,6.263,246.0,,'11111222,11111222,99999999' 
WAVCIS,ioos:station:WAVCIS:CSI06:1,2016-07-03T20:00:00Z,28.8667,-90.4833,10.0,4.53,244.0,,'11111222,11111222,99999999' 
WAVCIS,ioos:station:WAVCIS:CSI06:1,2016-07-03T21:00:00Z,28.8667,-90.4833,10.0,5.586,250.0,,'11111222,11111222,99999999' 
WAVCIS,ioos:station:WAVCIS:CSI06:1,2016-07-03T22:00:00Z,28.8667,-90.4833,10.0,4.218,263.0,,'11111222,11111222,99999999' 
WAVCIS,ioos:station:WAVCIS:CSI06:1,2016-07-03T23:00:00Z,28.8667,-90.4833,10.0,4.177,233.0,,'11111222,11111222,99999999' 
WAVCIS,ioos:station:WAVCIS:CSI06:1,2016-07-04T00:00:00Z,28.8667,-90.4833,10.0,3.997,216.0,,'11111222,11111222,99999999' 
WAVCIS,ioos:station:WAVCIS:CSI06:1,2016-07-04T01:00:00Z,28.8667,-90.4833,10.0,4.328,200.0,,'11111222,11111222,99999999' 
WAVCIS,ioos:station:WAVCIS:CSI06:1,2016-07-04T02:00:00Z,28.8667,-90.4833,10.0,4.783,200.0,,'11111222,11111222,99999999' 
WAVCIS,ioos:station:WAVCIS:CSI06:1,2016-07-04T03:00:00Z,28.8667,-90.4833,10.0,5.82,186.0,,'11111222,11111222,99999999' 
WAVCIS,ioos:station:WAVCIS:CSI06:1,2016-07-04T04:00:00Z,28.8667,-90.4833,10.0,6.47,179.0,,'11111222,11111222,99999999' 
WAVCIS,ioos:station:WAVCIS:CSI06:1,2016-07-04T05:00:00Z,28.8667,-90.4833,10.0,8.19,175.0,,'11111222,11111222,99999999' 
WAVCIS,ioos:station:WAVCIS:CSI06:1,2016-07-04T06:00:00Z,28.8667,-90.4833,10.0,8.58,192.0,,'11111222,11111222,99999999' 
WAVCIS,ioos:station:WAVCIS:CSI06:1,2016-07-04T07:00:00Z,28.8667,-90.4833,10.0,10.41,192.0,,'11111222,11111222,99999999' 
WAVCIS,ioos:station:WAVCIS:CSI06:1,2016-07-04T08:00:00Z,28.8667,-90.4833,10.0,8.84,200.0,,'11111222,11111222,99999999' 
WAVCIS,ioos:station:WAVCIS:CSI06:1,2016-07-04T09:00:00Z,28.8667,-90.4833,10.0,8.31,207.0,,'11111222,11111222,99999999' 
WAVCIS,ioos:station:WAVCIS:CSI06:1,2016-07-04T10:00:00Z,28.8667,-90.4833,10.0,7.77,223.0,,'11111222,11111222,99999999' 
WAVCIS,ioos:station:WAVCIS:CSI06:1,2016-07-04T11:00:00Z,28.8667,-90.4833,10.0,8.23,225.0,,'11111222,11111222,99999999' 
WAVCIS,ioos:station:WAVCIS:CSI06:1,2016-07-04T12:00:00Z,28.8667,-90.4833,10.0,7.91,216.0,,'11111222,11111222,99999999' 
WAVCIS,ioos:station:WAVCIS:CSI06:1,2016-07-04T13:00:00Z,28.8667,-90.4833,10.0,6.63,224.0,,'11111222,11111222,99999999' 
WAVCIS,ioos:station:WAVCIS:CSI06:1,2016-07-04T14:00:00Z,28.8667,-90.4833,10.0,6.551,204.0,,'11111222,11111222,99999999' 
WAVCIS,ioos:station:WAVCIS:CSI06:1,2016-07-04T15:00:00Z,28.8667,-90.4833,10.0,6.096,210.0,,'11111222,11111222,99999999' 
WAVCIS,ioos:station:WAVCIS:CSI06:1,2016-07-04T16:00:00Z,28.8667,-90.4833,10.0,5.191,209.0,,'11111222,11111222,99999999' 
WAVCIS,ioos:station:WAVCIS:CSI06:1,2016-07-04T17:00:00Z,28.8667,-90.4833,10.0,5.848,201.0,,'11111222,11111222,99999999' 
WAVCIS,ioos:station:WAVCIS:CSI06:1,2016-07-04T18:00:00Z,28.8667,-90.4833,10.0,5.621,205.0,,'11111222,11111222,99999999' 
WAVCIS,ioos:station:WAVCIS:CSI06:1,2016-07-04T19:00:00Z,28.8667,-90.4833,10.0,5.861,201.0,,'11111222,11111222,99999999' 
WAVCIS,ioos:station:WAVCIS:CSI06:1,2016-07-04T20:00:00Z,28.8667,-90.4833,10.0,6.436,211.0,,'11111222,11111222,99999999' 
WAVCIS,ioos:station:WAVCIS:CSI06:1,2016-07-04T21:00:00Z,28.8667,-90.4833,10.0,6.145,207.0,,'11111222,11111222,99999999' 
WAVCIS,ioos:station:WAVCIS:CSI06:1,2016-07-04T22:00:00Z,28.8667,-90.4833,10.0,5.84,213.0,,'11111222,11111222,99999999' 
WAVCIS,ioos:station:WAVCIS:CSI06:1,2016-07-04T23:00:00Z,28.8667,-90.4833,10.0,7.06,201.0,,'11111222,11111222,99999999' 
WAVCIS,ioos:station:WAVCIS:CSI06:1,2016-07-05T00:00:00Z,28.8667,-90.4833,10.0,6.373,210.0,,'11111222,11111222,99999999' 
WAVCIS,ioos:station:WAVCIS:CSI06:1,2016-07-05T01:00:00Z,28.8667,-90.4833,10.0,5.903,201.0,,'11111222,11111222,99999999' 
WAVCIS,ioos:station:WAVCIS:CSI06:1,2016-07-05T02:00:00Z,28.8667,-90.4833,10.0,6.607,192.0,,'11111222,11111222,99999999' 
WAVCIS,ioos:station:WAVCIS:CSI06:1,2016-07-05T03:00:00Z,28.8667,-90.4833,10.0,6.657,184.0,,'11111222,11111222,99999999' 
WAVCIS,ioos:station:WAVCIS:CSI06:1,2016-07-05T04:00:00Z,28.8667,-90.4833,10.0,6.113,202.0,,'11111222,11111222,99999999' 
WAVCIS,ioos:station:WAVCIS:CSI06:1,2016-07-05T05:00:00Z,28.8667,-90.4833,10.0,5.73,197.0,,'11111222,11111222,99999999' 
WAVCIS,ioos:station:WAVCIS:CSI06:1,2016-07-05T06:00:00Z,28.8667,-90.4833,10.0,6.652,188.0,,'11111222,11111222,99999999' 
WAVCIS,ioos:station:WAVCIS:CSI06:1,2016-07-05T07:00:00Z,28.8667,-90.4833,10.0,7.91,189.0,,'11111222,11111222,99999999' 
WAVCIS,ioos:station:WAVCIS:CSI06:1,2016-07-05T08:00:00Z,28.8667,-90.4833,10.0,8.6,190.0,,'11111222,11111222,99999999' 
WAVCIS,ioos:station:WAVCIS:CSI06:1,2016-07-05T09:00:00Z,28.8667,-90.4833,10.0,8.57,201.0,,'11111222,11111222,99999999' 
WAVCIS,ioos:station:WAVCIS:CSI06:1,2016-07-05T10:00:00Z,28.8667,-90.4833,10.0,8.48,203.0,,'11111222,11111222,99999999' 
WAVCIS,ioos:station:WAVCIS:CSI06:1,2016-07-05T11:00:00Z,28.8667,-90.4833,10.0,9.53,217.0,,'11111222,11111222,99999999' 
WAVCIS,ioos:station:WAVCIS:CSI06:1,2016-07-05T12:00:00Z,28.8667,-90.4833,10.0,8.18,211.0,,'11111222,11111222,99999999' 
WAVCIS,ioos:station:WAVCIS:CSI06:1,2016-07-05T13:00:00Z,28.8667,-90.4833,10.0,7.93,218.0,,'11111222,11111222,99999999' 
WAVCIS,ioos:station:WAVCIS:CSI06:1,2016-07-05T14:00:00Z,28.8667,-90.4833,10.0,6.713,223.0,,'11111222,11111222,99999999' 
WAVCIS,ioos:station:WAVCIS:CSI06:1,2016-07-05T15:00:00Z,28.8667,-90.4833,10.0,7.04,230.0,,'11111222,11111222,99999999' 
WAVCIS,ioos:station:WAVCIS:CSI06:1,2016-07-05T16:00:00Z,28.8667,-90.4833,10.0,6.724,233.0,,'11111222,11111222,99999999' 
WAVCIS,ioos:station:WAVCIS:CSI06:1,2016-07-05T17:00:00Z,28.8667,-90.4833,10.0,6.392,235.0,,'11111222,11111222,99999999' 
WAVCIS,ioos:station:WAVCIS:CSI06:1,2016-07-05T18:00:00Z,28.8667,-90.4833,10.0,5.059,245.0,,'11111222,11111222,99999999' 
WAVCIS,ioos:station:WAVCIS:CSI06:1,2016-07-05T19:00:00Z,28.8667,-90.4833,10.0,5.246,240.0,,'11111222,11111222,99999999' 
WAVCIS,ioos:station:WAVCIS:CSI06:1,2016-07-05T20:00:00Z,28.8667,-90.4833,10.0,3.924,231.0,,'11111222,11111222,99999999' 
WAVCIS,ioos:station:WAVCIS:CSI06:1,2016-07-05T21:00:00Z,28.8667,-90.4833,10.0,5.074,214.0,,'11111222,11111222,99999999' 
WAVCIS,ioos:station:WAVCIS:CSI06:1,2016-07-05T22:00:00Z,28.8667,-90.4833,10.0,5.123,215.0,,'11111222,11111222,99999999' 
WAVCIS,ioos:station:WAVCIS:CSI06:1,2016-07-05T23:00:00Z,28.8667,-90.4833,10.0,4.828,217.0,,'11111222,11111222,99999999' 
WAVCIS,ioos:station:WAVCIS:CSI06:1,2016-07-06T00:00:00Z,28.8667,-90.4833,10.0,4.686,194.0,,'11111222,11111222,99999999' 
WAVCIS,ioos:station:WAVCIS:CSI06:1,2016-07-06T01:00:00Z,28.8667,-90.4833,10.0,4.614,197.0,,'11111222,11111222,99999999' 
WAVCIS,ioos:station:WAVCIS:CSI06:1,2016-07-06T02:00:00Z,28.8667,-90.4833,10.0,5.481,189.0,,'11111222,11111222,99999999' 
WAVCIS,ioos:station:WAVCIS:CSI06:1,2016-07-06T03:00:00Z,28.8667,-90.4833,10.0,5.682,184.0,,'11111222,11111222,99999999' 
WAVCIS,ioos:station:WAVCIS:CSI06:1,2016-07-06T04:00:00Z,28.8667,-90.4833,10.0,5.941,190.0,,'11111222,11111222,99999999' 
WAVCIS,ioos:station:WAVCIS:CSI06:1,2016-07-06T05:00:00Z,28.8667,-90.4833,10.0,6.92,190.0,,'11111222,11111222,99999999' 
WAVCIS,ioos:station:WAVCIS:CSI06:1,2016-07-06T06:00:00Z,28.8667,-90.4833,10.0,8.1,196.0,,'11111222,11111222,99999999' 
WAVCIS,ioos:station:WAVCIS:CSI06:1,2016-07-06T07:00:00Z,28.8667,-90.4833,10.0,8.18,195.0,,'11111222,11111222,99999999' 
WAVCIS,ioos:station:WAVCIS:CSI06:1,2016-07-06T08:00:00Z,28.8667,-90.4833,10.0,8.34,195.0,,'11111222,11111222,99999999' 
WAVCIS,ioos:station:WAVCIS:CSI06:1,2016-07-06T09:00:00Z,28.8667,-90.4833,10.0,7.78,205.0,,'11111222,11111222,99999999' 
WAVCIS,ioos:station:WAVCIS:CSI06:1,2016-07-06T10:00:00Z,28.8667,-90.4833,10.0,7.8,200.0,,'11111222,11111222,99999999' 
WAVCIS,ioos:station:WAVCIS:CSI06:1,2016-07-06T11:00:00Z,28.8667,-90.4833,10.0,7.81,198.0,,'11111222,11111222,99999999' 
WAVCIS,ioos:station:WAVCIS:CSI06:1,2016-07-06T12:00:00Z,28.8667,-90.4833,10.0,6.851,194.0,,'11111222,11111222,99999999' 
WAVCIS,ioos:station:WAVCIS:CSI06:1,2016-07-06T13:00:00Z,28.8667,-90.4833,10.0,5.831,196.0,,'11111222,11111222,99999999' 
WAVCIS,ioos:station:WAVCIS:CSI06:1,2016-07-06T14:00:00Z,28.8667,-90.4833,10.0,5.838,201.0,,'11111222,11111222,99999999' 
WAVCIS,ioos:station:WAVCIS:CSI06:1,2016-07-06T15:00:00Z,28.8667,-90.4833,10.0,5.402,196.0,,'11111222,11111222,99999999' 
WAVCIS,ioos:station:WAVCIS:CSI06:1,2016-07-06T16:00:00Z,28.8667,-90.4833,10.0,4.468,205.0,,'11111222,11111222,99999999' 
WAVCIS,ioos:station:WAVCIS:CSI06:1,2016-07-06T17:00:00Z,28.8667,-90.4833,10.0,4.579,196.0,,'11111222,11111222,99999999' 
WAVCIS,ioos:station:WAVCIS:CSI06:1,2016-07-06T18:00:00Z,28.8667,-90.4833,10.0,4.176,193.0,,'11111222,11111222,99999999' 
WAVCIS,ioos:station:WAVCIS:CSI06:1,2016-07-06T19:00:00Z,28.8667,-90.4833,10.0,3.181,191.0,,'11111222,11111222,99999999' 
WAVCIS,ioos:station:WAVCIS:CSI06:1,2016-07-06T20:00:00Z,28.8667,-90.4833,10.0,3.102,207.0,,'11111222,11111222,99999999' 
WAVCIS,ioos:station:WAVCIS:CSI06:1,2016-07-06T21:00:00Z,28.8667,-90.4833,10.0,2.846,185.0,,'11111222,11111222,99999999' 
WAVCIS,ioos:station:WAVCIS:CSI06:1,2016-07-06T22:00:00Z,28.8667,-90.4833,10.0,3.519,165.0,,'11111222,11111222,99999999' 
WAVCIS,ioos:station:WAVCIS:CSI06:1,2016-07-06T23:00:00Z,28.8667,-90.4833,10.0,3.77,169.0,,'11111222,11111222,99999999' 
WAVCIS,ioos:station:WAVCIS:CSI06:1,2016-07-07T00:00:00Z,28.8667,-90.4833,10.0,4.693,159.0,,'11111222,11111222,99999999' 
WAVCIS,ioos:station:WAVCIS:CSI06:1,2016-07-07T01:00:00Z,28.8667,-90.4833,10.0,4.601,173.0,,'11111222,11111222,99999999' 
WAVCIS,ioos:station:WAVCIS:CSI06:1,2016-07-07T02:00:00Z,28.8667,-90.4833,10.0,4.296,154.0,,'11111222,11111222,99999999' 
WAVCIS,ioos:station:WAVCIS:CSI06:1,2016-07-07T03:00:00Z,28.8667,-90.4833,10.0,4.338,157.0,,'11111222,11111222,99999999' 
WAVCIS,ioos:station:WAVCIS:CSI06:1,2016-07-07T04:00:00Z,28.8667,-90.4833,10.0,4.959,158.0,,'11111222,11111222,99999999' 
WAVCIS,ioos:station:WAVCIS:CSI06:1,2016-07-07T05:00:00Z,28.8667,-90.4833,10.0,5.774,158.0,,'11111222,11111222,99999999' 
WAVCIS,ioos:station:WAVCIS:CSI06:1,2016-07-07T06:00:00Z,28.8667,-90.4833,10.0,6.661,171.0,,'11111222,11111222,99999999' 
WAVCIS,ioos:station:WAVCIS:CSI06:1,2016-07-07T07:00:00Z,28.8667,-90.4833,10.0,6.876,157.0,,'11111222,11111222,99999999' 
WAVCIS,ioos:station:WAVCIS:CSI06:1,2016-07-07T08:00:00Z,28.8667,-90.4833,10.0,6.871,171.0,,'11111222,11111222,99999999' 
WAVCIS,ioos:station:WAVCIS:CSI06:1,2016-07-07T09:00:00Z,28.8667,-90.4833,10.0,6.334,179.0,,'11111222,11111222,99999999' 
WAVCIS,ioos:station:WAVCIS:CSI06:1,2016-07-07T10:00:00Z,28.8667,-90.4833,10.0,5.632,181.0,,'11111222,11111222,99999999' 
WAVCIS,ioos:station:WAVCIS:CSI06:1,2016-07-07T11:00:00Z,28.8667,-90.4833,10.0,6.287,192.0,,'11111222,11111222,99999999' 
WAVCIS,ioos:station:WAVCIS:CSI06:1,2016-07-07T12:00:00Z,28.8667,-90.4833,10.0,5.525,181.0,,'11111222,11111222,99999999' 
WAVCIS,ioos:station:WAVCIS:CSI06:1,2016-07-07T13:00:00Z,28.8667,-90.4833,10.0,4.967,168.0,,'11111222,11111222,99999999' 
WAVCIS,ioos:station:WAVCIS:CSI06:1,2016-07-07T14:00:00Z,28.8667,-90.4833,10.0,5.868,176.0,,'11111222,11111222,99999999' 
WAVCIS,ioos:station:WAVCIS:CSI06:1,2016-07-07T15:00:00Z,28.8667,-90.4833,10.0,5.208,166.0,,'11111222,11111222,99999999' 
WAVCIS,ioos:station:WAVCIS:CSI06:1,2016-07-07T16:00:00Z,28.8667,-90.4833,10.0,3.94,180.0,,'11111222,11111222,99999999' 
WAVCIS,ioos:station:WAVCIS:CSI06:1,2016-07-07T17:00:00Z,28.8667,-90.4833,10.0,4.629,177.0,,'11111222,11111222,99999999' 
WAVCIS,ioos:station:WAVCIS:CSI06:1,2016-07-07T18:00:00Z,28.8667,-90.4833,10.0,4.09,181.0,,'11111222,11111222,99999999' 
WAVCIS,ioos:station:WAVCIS:CSI06:1,2016-07-07T19:00:00Z,28.8667,-90.4833,10.0,4.344,181.0,,'11111222,11111222,99999999' 
WAVCIS,ioos:station:WAVCIS:CSI06:1,2016-07-07T20:00:00Z,28.8667,-90.4833,10.0,3.756,180.0,,'11111222,11111222,99999999' 
WAVCIS,ioos:station:WAVCIS:CSI06:1,2016-07-07T21:00:00Z,28.8667,-90.4833,10.0,3.892,174.0,,'11111222,11111222,99999999' 
WAVCIS,ioos:station:WAVCIS:CSI06:1,2016-07-07T22:00:00Z,28.8667,-90.4833,10.0,3.627,177.0,,'11111222,11111222,99999999' 
WAVCIS,ioos:station:WAVCIS:CSI06:1,2016-07-07T23:00:00Z,28.8667,-90.4833,10.0,3.935,195.0,,'11111222,11111222,99999999' 
WAVCIS,ioos:station:WAVCIS:CSI06:1,2016-07-08T00:00:00Z,28.8667,-90.4833,10.0,4.342,172.0,,'11111222,11111222,99999999' 
WAVCIS,ioos:station:WAVCIS:CSI06:1,2016-07-08T01:00:00Z,28.8667,-90.4833,10.0,4.254,180.0,,'11111222,11111222,99999999' 
WAVCIS,ioos:station:WAVCIS:CSI06:1,2016-07-08T02:00:00Z,28.8667,-90.4833,10.0,5.01,177.0,,'11111222,11111222,99999999' 
WAVCIS,ioos:station:WAVCIS:CSI06:1,2016-07-08T03:00:00Z,28.8667,-90.4833,10.0,5.655,186.0,,'11111222,11111222,99999999' 
WAVCIS,ioos:station:WAVCIS:CSI06:1,2016-07-08T04:00:00Z,28.8667,-90.4833,10.0,5.288,180.0,,'11111222,11111222,99999999' 
WAVCIS,ioos:station:WAVCIS:CSI06:1,2016-07-08T05:00:00Z,28.8667,-90.4833,10.0,5.315,173.0,,'11111222,11111222,99999999' 
WAVCIS,ioos:station:WAVCIS:CSI06:1,2016-07-08T06:00:00Z,28.8667,-90.4833,10.0,6.729,156.0,,'11111222,11111222,99999999' 
WAVCIS,ioos:station:WAVCIS:CSI06:1,2016-07-08T07:00:00Z,28.8667,-90.4833,10.0,6.02,173.0,,'11111222,11111222,99999999' 
WAVCIS,ioos:station:WAVCIS:CSI06:1,2016-07-08T08:00:00Z,28.8667,-90.4833,10.0,6.215,175.0,,'11111222,11111222,99999999' 
WAVCIS,ioos:station:WAVCIS:CSI06:1,2016-07-08T09:00:00Z,28.8667,-90.4833,10.0,5.729,172.0,,'11111222,11111222,99999999' 
WAVCIS,ioos:station:WAVCIS:CSI06:1,2016-07-08T10:00:00Z,28.8667,-90.4833,10.0,6.248,199.0,,'11111222,11111222,99999999' 
WAVCIS,ioos:station:WAVCIS:CSI06:1,2016-07-08T11:00:00Z,28.8667,-90.4833,10.0,6.116,206.0,,'11111222,11111222,99999999' 
WAVCIS,ioos:station:WAVCIS:CSI06:1,2016-07-08T12:00:00Z,28.8667,-90.4833,10.0,5.884,217.0,,'11111222,11111222,99999999' 
WAVCIS,ioos:station:WAVCIS:CSI06:1,2016-07-08T13:00:00Z,28.8667,-90.4833,10.0,4.891,232.0,,'11111222,11111222,99999999' 
WAVCIS,ioos:station:WAVCIS:CSI06:1,2016-07-08T14:00:00Z,28.8667,-90.4833,10.0,3.906,242.0,,'11111222,11111222,99999999' 
WAVCIS,ioos:station:WAVCIS:CSI06:1,2016-07-08T15:00:00Z,28.8667,-90.4833,10.0,3.497,258.0,,'11111222,11111222,99999999' 
WAVCIS,ioos:station:WAVCIS:CSI06:1,2016-07-08T16:00:00Z,28.8667,-90.4833,10.0,2.507,247.0,,'11111222,11111222,99999999' 
WAVCIS,ioos:station:WAVCIS:CSI06:1,2016-07-08T17:00:00Z,28.8667,-90.4833,10.0,2.202,241.0,,'11111222,11111222,99999999' 
WAVCIS,ioos:station:WAVCIS:CSI06:1,2016-07-08T18:00:00Z,28.8667,-90.4833,10.0,2.433,227.0,,'11111222,11111222,99999999' 
WAVCIS,ioos:station:WAVCIS:CSI06:1,2016-07-08T19:00:00Z,28.8667,-90.4833,10.0,1.409,187.0,,'11111222,11111222,99999999' 
WAVCIS,ioos:station:WAVCIS:CSI06:1,2016-07-08T23:00:00Z,28.8667,-90.4833,10.0,3.1,130.0,5.7,'11111222,11111222,11111222' 
WAVCIS,ioos:station:WAVCIS:CSI06:1,2016-07-09T02:00:00Z,28.8667,-90.4833,10.0,6.7,180.0,8.2,'11111222,11111222,11111222' 
WAVCIS,ioos:station:WAVCIS:CSI06:1,2016-07-09T03:00:00Z,28.8667,-90.4833,10.0,4.6,190.0,5.1,'11111222,11111222,11111222' 
WAVCIS,ioos:station:WAVCIS:CSI06:1,2016-07-09T04:00:00Z,28.8667,-90.4833,10.0,4.6,190.0,5.7,'11111222,11111222,11111222' 
WAVCIS,ioos:station:WAVCIS:CSI06:1,2016-07-09T05:00:00Z,28.8667,-90.4833,10.0,5.1,200.0,6.2,'11111222,11111222,11111222' 
WAVCIS,ioos:station:WAVCIS:CSI06:1,2016-07-09T11:00:00Z,28.8667,-90.4833,10.0,4.1,240.0,4.6,'11111222,11111222,11111222' 
WAVCIS,ioos:station:WAVCIS:CSI06:1,2016-07-10T19:00:00Z,28.8667,-90.4833,10.0,99.0,-9999.0,99.0,'11144222,99999999,11144222' 
WAVCIS,ioos:station:WAVCIS:CSI06:1,2016-07-10T22:00:00Z,28.8667,-90.4833,10.0,4.1,240.0,5.1,'11111222,11111222,11111222' 
WAVCIS,ioos:station:WAVCIS:CSI06:1,2016-07-11T10:00:00Z,28.8667,-90.4833,10.0,5.7,200.0,6.7,'11111222,11111222,11111222' 